Location: Middelsbur
(53.6609°N, 7.5020°E)
Time: 23:36:29
(UTC+00:00)

Cosmos 1151 Rocket - Pass Details

Date: 06 July 2020
Orbit: 591 x 617 km, 82.5° (Epoch: 03 August)

Event Time Altitude Azimuth Distance (km) Brightness Sun altitude
Rises 23:43:47 0° 341° (NNW) 2,883 7.9 -13.8°
Reaches altitude 10° 23:46:15 10° 329° (NNW) 1,969 6.5 -13.7°
Maximum altitude 23:49:55 27° 272° (W) 1,169 4.4 -13.7°
Enters shadow 23:52:34 15° 223° (SW) 1,628 4.8 -13.7°
